sat.trackr.live / text

‹ back to catalog

STARLINK-6129

NORAD 57116 · 2023-090R

PAYLOAD ACTIVE UNKNOWN

§ Identity

Operator
Country
US
Launch date
2023-06-23
Launch site
AFETR
Launch vehicle
Mass (kg)
RCS (m²)

Purposes: comms

External: N2YO · Heavens-Above · Gunter

§ Orbital elements

Epoch: 2026-09-20T11:01:28.134624Z

Period
94.27 min
Inclination
43.0037°
Eccentricity
0.0001518
Mean motion
15.27573345 rev/d
Perigee alt
482.0 km
Apogee alt
484.1 km
Semi-major
6,861.2 km
B*
-1.9162e-6
RAAN
261.2782°
Arg perigee
274.0394°
Mean anomaly
86.0284°
Rev number
18,012

§ Raw data

STARLINK-61291 57116U 23090R   26263.45935341 -.00000315  00000+0 -19162-5 0  99912 57116  43.0037 261.2782 0001518 274.0394  86.0284 15.27573345180123

JSON: /api/v1/satellites/57116 · /tle

For live sub-satellite position, see the globe view (requires WebGL).

§ Visibility from observer

Set your observer location to see the next 7 days of passes ≥ 10°. The values pass through the URL so the page stays shareable.

No JS? Fill the form by hand. The geolocation button needs JavaScript.